Hourly Data Report for May 23, 2021

DRYDEN REGIONAL
ONTARIO
Current Station Operator: NAVCAN

49°49'39.000" N
92°44'39.000" W
412.70 m
6032125
71527
YHD

Download Data

Hourly Data (May 2021)
Hourly Data Report for May 23, 2021
TIME
LST
Temp Definition
°C
Dew Point Definition
°C
Rel Hum Definition
%
Precip. Amount Definition
mm

Wind Dir Definition
10's deg

Wind Spd Definition
km/h
Visibility Definition
km
Stn Press Definition
kPa
Hmdx Definition


Wind Chill Definition


Weather Definition


00:00 5.8 5.1 95 0.2 7 17 16.1 97.82     LegendNANA
01:00 5.3 4.1 92 0.0 6 21 16.1 97.80     LegendNANA
02:00 4.2 3.5 95 0.0 6 18 14.5 97.78     LegendNANA
03:00 3.5 2.9 96 0.0 8 24 11.3 97.84     LegendNANA
04:00 3.0 2.4 96 0.0 7 17 16.1 97.92     LegendNANA
05:00 2.9 2.0 94 0.0 7 22 16.1 97.92     LegendNANA
06:00 3.0 1.8 92 0.0 9 17 16.1 97.92     LegendNANA
07:00 2.9 1.4 90 0.0 7 24 16.1 97.90     LegendNANA
08:00 3.5 1.3 86 0.0 10 18 16.1 97.87     LegendNANA
09:00 4.2 1.9 85 0.0 11 18 16.1 97.89     LegendNANA
10:00 4.9 2.3 83 0.0 8 13 16.1 97.90     LegendNANA
11:00 6.3 2.6 77 0.0 11 18 16.1 97.85     LegendNANA
12:00 7.0 3.1 76 0.0 10 15 16.1 97.81     LegendNANA
13:00 8.3 3.9 74 0.0 13 17 16.1 97.73     LegendNANA
14:00 9.4 4.7 72 0.0 12 18 16.1 97.63     LegendNANA
15:00 9.5 4.6 71 0.0 15 21 16.1 97.55     LegendNANA
16:00 10.0 5.0 71 0.0 15 13 16.1 97.49     LegendNANA
17:00 10.2 5.4 72 0.0 17 13 16.1 97.42     LegendNANA
18:00 10.4 5.8 73 0.0 16 13 16.1 97.35     LegendNANA
19:00 10.4 6.0 74 0.0 14 15 16.1 97.26     LegendNANA
20:00 10.4 5.4 71 0.0 16 17 16.1 97.22     LegendNANA
21:00 10.0 4.3 67 0.0 14 13 16.1 97.19     LegendNANA
22:00 9.8 4.0 67 0.0 15 18 16.1 97.12     LegendNANA
23:00 9.6 4.4 70 0.0 14 13 16.1 97.08     LegendNANA

Notes on Data Quality.

Legend

  • E = Estimated
  • M = Missing
  • NA = Not Available*
  • [empty] = Indicates an unobserved value
Date modified: